Location: Alt?nova Orta
(36.9295°N, 30.7847°E)
Time: 08:49:13
(UTC+00:00)

USA 229 - Pass Details

Date: 17 February 2020
Orbit: 986 x 1226 km, 63.4° (Epoch: 26 March)

Event Time Altitude Azimuth Distance (km) Brightness Sun altitude
Exits shadow 01:48:20 49° 12° (NNE) 1,484 4.4 -35.6°
Maximum altitude 01:49:53 58° 54° (NE) 1,369 4.3 -35.3°
Drops below altitude 10° 01:57:22 10° 132° (SE) 3,160 6.5 -33.9°
Sets 02:00:13 0° 136° (SE) 4,133 7.2 -33.3°
